www.pogodaiklimat.ru

Архив погоды в Термезе (Сухрандарьинская область, Узбекистан)

Время
(UTC), дата
03 16.10
06 16.10
09 16.10
12 16.10
15 16.10
18 16.10
21 16.10
00 17.10
03 17.10
06 17.10
09 17.10
12 17.10
15 17.10
18 17.10
21 17.10
00 18.10
03 18.10
06 18.10
09 18.10
12 18.10
15 18.10
18 18.10
21 18.10
00 19.10
03 19.10
06 19.10
09 19.10
12 19.10
15 19.10
18 19.10
21 19.10
00 20.10
03 20.10
06 20.10
09 20.10
12 20.10
15 20.10
18 20.10
21 20.10
00 21.10
03 21.10
06 21.10
09 21.10
12 21.10
15 21.10
18 21.10
21 21.10
00 22.10
03 22.10
06 22.10
09 22.10
12 22.10
15 22.10
18 22.10
21 22.10
00 23.10
Ветер
(напр.,м/с)
Видим. Явления Облачность Т
(С)
Тd
(С)
f
(%)
Тe
(С)
Тes
(С)
Комфортность P
(гПа)
Po
(гПа)
Тmin
(С)
Tmax
(С)
R
(мм)
R24
(мм)
S
(см)
Ю 2 10 км 3/0
[Ci fib]
+9.8 -5.0 35 +9 +10 прохладно 1019.7 982.2
ЮЗ 2 10 км 3/0
[Ci fib]
+16.7 0.0 32 +17 +25 по сезону 1018.9 982.4 +6.1
З 3 10 км 3/0
[Ci fib]
+22.0 -0.2 23 +21 +28 комфорт 1015.2 979.6
З 1 10 км 4/0
[Ci fib]
+22.8 +1.3 24 +22 +23 комфорт 1014.4 978.9
Ю 2 5000 м мгла 6/0
[Ci fib]
+15.2 +0.2 36 +15 +15 по сезону 1016.0 979.5 +23.6
ЮВ 1 10 км 3/0
[Ci fib]
+10.9 -1.2 43 +11 +11 по сезону 1017.4 980.3 +23.6
В 2 10 км 4/0
[Ac trans]
+9.9 -0.9 47 +9 +9 по сезону 1017.4 980.2
ЮВ 2 10 км 5/0
[Ac trans]
+7.5 -0.9 55 +6 +6 по сезону 1017.4 979.8
штиль 0 10 км 8/0
[Ci fib]
+10.2 -3.8 37 +10 +11 по сезону 1017.9 980.7
ЮВ 2 10 км 9/0
[Ci fib]
+17.6 -0.4 30 +18 +25 тепло 1016.8 980.5 +7.1
Ю 1 10 км 9/0
[Ci fib]
+20.8 -5.4 17 +21 +29 комфорт 1013.7 977.9
З 2 10 км 9/0
[Ci fib]
+20.2 -1.7 23 +21 +21 комфорт 1013.0 977.2
Ю 1 10 км 9/0
[Ac trans Ci fib]
+15.4 +1.5 39 +16 +16 тепло 1014.9 978.4 +22.2
ЮВ 2 10 км 9/9 2000 м
[Cb cap Ac und]
+12.7 -1.7 37 +12 +12 по сезону 1016.2 979.3 +22.2
ЮВ 3 10 км 9/9 2000 м
[Cb cap Ac und]
+11.1 -0.2 46 +10 +10 по сезону 1016.3 979.3
СВ 2 10 км 9/9 2000 м
[Cb cap Ac und]
+8.2 -0.5 54 +7 +7 по сезону 1016.4 979.0
СВ 2 10 км 6/6 2000 м
[Cb cap Ac und]
+9.6 +2.9 63 +8 +9 по сезону 1016.2 979.0
штиль 0 10 км 3/3 2000 м
[Cb cap]
+20.2 -3.0 21 +20 +27 тепло 1014.3 978.4 +6.7
В 2 10 км ясно +24.4 -5.0 14 +22 +30 комфорт 1011.1 975.8
Ю 1 10 км ясно +23.0 -5.4 15 +21 +22 комфорт 1010.3 974.8
штиль 0 10 км ясно +15.3 +1.1 38 +15 +15 тепло 1012.6 976.2 +25.3
СВ 2 10 км ясно +11.7 -0.9 42 +11 +11 тепло 1014.1 977.1 +25.3
СВ 2 10 км ясно +10.3 +0.2 50 +9 +9 по сезону 1014.3 977.2
СВ 2 10 км ясно +7.9 +1.3 63 +6 +6 по сезону 1015.1 977.6
СВ 3 10 км ясно +9.7 +1.5 57 +8 +8 по сезону 1015.7 978.5
штиль 0 10 км 4/0
[Ci fib]
+21.9 -0.9 22 +21 +31 комфорт 1014.5 978.9 +6.7
штиль 0 10 км 3/0
[Ci fib]
+26.5 -5.4 12 +24 +34 комфорт 1012.2 977.1
В 2 10 км 4/0
[Ac trans Ci fib]
+26.0 -1.2 17 +24 +25 комфорт 1011.3 976.2
В 1 10 км 5/0
[Ac trans Ci fib]
+20.0 -0.9 24 +21 +21 комфорт 1013.2 977.4 +28.0
С 2 10 км 3/0
[Ci fib]
+14.5 -0.7 35 +14 +14 тепло 1014.6 978.0 +28.0
СВ 2 10 км 4/0
[Ci fib]
+11.9 +0.2 45 +11 +11 тепло 1015.3 978.4
СВ 2 10 км 6/0
[Ci fib]
+10.2 +2.5 59 +9 +9 по сезону 1016.2 978.0
СВ 1 10 км 8/8 2000 м
[Cb cap Ac trans Ci fib]
+10.2 +3.0 61 +10 +10 прохладно 1017.4 980.2
ЮВ 2 10 км 6/6 2000 м
[Cb cap Ac trans Ci fib]
+21.9 -0.9 22 +21 +24 комфорт 1016.3 980.6 +8.8
В 1 10 км 9/0
[Ac trans Ci fib]
+26.1 -3.8 14 +24 +28 комфорт 1013.3 978.1
З 2 10 км 9/9 2000 м
[Cb cap Ac und Ci fib]
+23.8 +2.9 26 +23 +23 комфорт 1013.4 978.0
штиль 0 5000 м мгла 9/9 2000 м
[Cb cap Ci fib]
+17.6 +1.1 33 +18 +18 по сезону 1015.4 979.1 +27.4
Ю 1 10 км 8/8 2000 м
[Cb cap Ci fib]
+14.7 +1.1 40 +15 +15 тепло 1015.8 979.3 +27.4
штиль 0 10 км 8/8 2000 м
[Cb cap Ac und]
+12.2 +5.0 61 +12 +12 по сезону 1015.7 978.8
ЮЗ 2 10 км 9/9 2000 м
[Cb cap Ac trans]
+12.4 -1.4 38 +12 +12 тепло 1014.9 978.0
ЮЗ 2 10 км 9/9 2000 м
[Cb cap Ac trans Ci fib]
+12.3 0.0 43 +12 +12 по сезону 1016.8 979.9
ЮЗ 10 800 м пыльная буря 10/10 2000 м
[Cb cap Ac und]
+20.6 +3.8 33 +20 +20 тепло 1018.0 982.1 +11.0
З 15 1700 м пыльная буря 10/10 2000 м
[Cb cap Ac und]
+22.7 +2.5 27 +22 +22 комфорт 1016.9 981.3
ЮЗ 7 3400 м пыльная буря 9/9 2000 м
[Cb cap Ac trans Ci fib]
+21.0 +1.1 27 +21 +21 комфорт 1018.9 983.0
ЮЗ 11 2100 м пыльная буря 10/10 2000 м
[Cb cap Ac und]
+15.3 +5.9 53 +13 +13 прохладно 1022.6 985.9 +23.1
ЮЗ 10 2800 м пыльная буря {ливн. дождь} 10/10 1500 м
[Cb cap Ac und]
+13.3 +5.9 61 +10 +10 по сезону 1024.2 987.1 +23.1
ЮЗ 8 4200 м слаб. ливневой дождь {пыльная буря} 10/10 1500 м
[Cb cap Ac und]
+12.2 +3.4 55 +9 +9 по сезону 1025.4 988.1
ЮЗ 12 7000 м пыльная буря {ливн. дождь} 9/9 2000 м
[Cb cap Ac und]
+11.4 +2.9 56 +7 +7 по сезону 1025.7 988.3
ЮЗ 8 6000 м пыльная буря 4/0
[Ac trans]
+9.6 -0.2 50 +6 +6 холодно 1029.5 991.7
ЮЗ 11 4200 м пыльная буря 6/0
[Ci fib]
+13.0 -5.0 28 +10 +10 очень
холодно
1030.8 993.4 +9.0 0.0
З 9 8000 м пыльная буря 4/0
[Ci fib]
+15.3 -10.3 16 +14 +14 холодно 1030.2 993.2
ЮЗ 3 10 км {пыльная буря} 3/0
[Ci fib]
+14.6 -9.4 18 +14 +15 очень
холодно
1031.6 994.4
ЮВ 1 7000 м мгла ясно +8.1 -2.7 46 +8 +8 очень
холодно
1034.0 995.9 +16.0
С 2 10 км ясно +6.0 -4.9 45 +4 +4 очень
холодно
1033.8 995.3 +16.0
СВ 1 10 км ясно +4.8 -4.0 53 +4 +4 холодно 1031.7 993.2
СВ 2 7000 м дымка ясно +5.1 +0.4 72 +3 +3 прохладно 1030.1 991.8
Местоположение метеостанции Термез (Сухрандарьинская область, Узбекистан): широта 37.23 долгота 67.27 высота над уровнем моря 310 м.
В архиве по умолчанию представлена погода в Термезе за последнюю неделю. Архивные данные за месяц целиком и за предыдущие месяцы, начиная с января 2011 года, Вы можете получить, выбрав интересующий диапазон дат из раскрывающегося списка и нажав кнопку "Найти!".
*Определитесь, кто Вы:
Внимание! Время в таблицах - всемирное. Для получения местного времени необходимо прибавить поправку, которая равна 5 ч.
Смотрите также архив погоды в соседних городах и на ближайших метеорологических станциях:
Партнеры нашего сайта:      
Пояснения к столбцам:
  • Ветер - указаны скорость ветра в м/с - средняя за 10 мин, порывы в срок и между сроками (в фигурных скобках) и направление, откуда дует ветер: С - северный,
  • СВ - северо-восточный, В - восточный, ЮВ - юго-восточный, Ю - южный, ЮЗ - юго-западный, З - западный, СЗ - северо-западный.
  • Видимость - горизонтальная дальность видимости в метрах или километрах. При видимости от 1 до 10 км при отсутствии осадков обычно наблюдается дымка, при ухудшении видимости до 1 км и менее - туман. В сухую погоду видимость может ухудшаться дымом, пылью или мглою.
  • Явления - указаны атмосферные явления, наблюдавшиеся в срок или в последний час перед сроком; фигурными скобками обозначены явления, наблюдавшиеся между сроками (за 1-3 часа до срока); квадратными скобками обозначены град или гололедные отложения с указанием их диаметра в мм.
  • Облачность - указаны через наклонную черту общая и нижняя облачность в баллах и высота нижней границы облаков в метрах; квадратными скобками обозначены формы облаков: Ci - перистые, Cs - перисто-слоистые, Cc - перисто-кучевые, Ac - высококучевые, As - высокослоистые, Sc - слоисто-кучевые, Ns - слоисто-дождевые, Cu - кучевые, Cb - кучево-дождевые. Подробнее классификацию облаков см. в Атласе облаков (PDF).
  • T - Температура воздуха - температура, измеренная на высоте 2 м над землей.
  • Td - Температура точки росы - температура, при понижении до которой содержащийся в воздухе водяной пар достигнет насыщения.
  • f - Относительная влажность воздуха - влажноcть воздуха, измеренная на высоте 2 м над землей.
  • Te - Эффективная температура - температура, которую ощущает одетый по сезону человек в тени. Характеристика душности погоды. При расчете учитывается влияние влажности воздуха и скорости ветра на теплоощущения человека.
  • Tes - Эффективная температура на солнце - температура, которую ощущает человек, с поправкой на солнечный нагрев. Характеристика знойности погоды. Зависит от высоты солнца над горизонтом, облачности и скорости ветра. Ночью, в пасмурную погоду, а также при ветре 12 м/с и более поправка равна нулю.
  • P - Атмосферное давление - приведенное к уровню моря атмосферное давление.
  • Po - Атмосферное давление - измеренное на уровне метеостанции атмосферное давление.
  • Tmin - Минимальная температура - минимум температуры воздуха на высоте 2 м над землей.
  • Tmax - Максимальная температура - максимум температуры воздуха на высоте 2 м над землей.
  • R - Количество осадков - Количество выпавших осадков за период времени, мм. При наведении курсора мыши на число - период времени, за который выпало указанное количество осадков.
  • R24 - Количество осадков - Количество выпавших осадков за 24 часа, мм.
  • S - Снежный покров - Высота снежного покрова, см. При наведении курсора мыши на число - состояние снежного покрова и степень покрытия местности в баллах.